Malaga, Spain

5:21 PM CEST on April 30, 2017 (GMT +0200)
Malaga

Weather History for LEMG - February, 2013

Change the Weather History Date:

Monday, February 11, 2013

  Actual Average Record
Temperature  
Mean Temperature 55 °F -  
Max Temperature 59 °F 62 °F 73 °F (2016)
Min Temperature 51 °F 46 °F 37 °F (2000)
Degree Days  
Heating Degree Days 10    
Growing Degree Days 5 (Base 50)    
Moisture  
Dew Point 36 °F    
Average Humidity 49    
Maximum Humidity 72    
Minimum Humidity 36    
Precipitation  
Precipitation 0.00 in 0.09 in - ()
Sea Level Pressure  
Sea Level Pressure 30.00 in    
Wind  
Wind Speed 11 mph ()    
Max Wind Speed 23 mph    
Max Gust Speed 38 mph    
Visibility 6.8 miles    
Events      
Averages and records for this station are not official NWS values.
T = Trace of Precipitation, MM = Missing Value Source: Averaged Metar Reports

Daily Weather History Graph

Daily Weather History Graph

Search for Another Location

Airport or City:

Trip Planner

Search our weather history database for the weather conditions in past years. The results will help you decide how hot, cold, wet, or windy it might be!

Date:

Astronomy

Feb. 11, 2013 Rise Set
Actual Time 8:10 AM CET 6:54 PM CET
Civil Twilight 7:43 AM CET 7:21 PM CET
Nautical Twilight 7:13 AM CET 7:51 PM CET
Astronomical Twilight 6:43 AM CET 8:21 PM CET
Moon 8:30 AM CET (2/11) 8:31 PM CET (2/11)
Length of Visible Light 11h 37m
Length of Day
10h 43m
New Moon, 2% of the Moon is Illuminated
Feb 11
New Moon
Feb 17
First Quarter
Feb 25
Full
Mar 4
Last Quarter
Mar 11
New

Hourly Weather History & Observations

Time (CET) Temp. Dew Point Humidity Pressure Visibility Wind Dir Wind Speed Gust Speed Precip Events Conditions
12:00 AM 57.2 °F 35.6 °F 44% 30.01 in 6.2 mi West 3.5 mph - N/A   Scattered Clouds
12:30 AM 57.2 °F 39.2 °F 51% 30.01 in 6.2 mi WSW 5.8 mph - N/A   Scattered Clouds
2:30 AM 55.4 °F 42.8 °F 63% 29.98 in 6.2 mi Variable 1.2 mph - N/A   Mostly Cloudy
3:00 AM 57.2 °F 44.6 °F 63% 29.98 in 6.2 mi Variable 2.3 mph - N/A   Mostly Cloudy
3:30 AM 57.2 °F 42.8 °F 59% 29.98 in 6.2 mi WNW 10.4 mph - N/A   Mostly Cloudy
4:00 AM 57.2 °F 42.8 °F 59% 29.98 in 6.2 mi WNW 11.5 mph - N/A   Mostly Cloudy
4:30 AM 57.2 °F 42.8 °F 59% 29.95 in 6.2 mi WNW 11.5 mph 23.0 mph N/A   Mostly Cloudy
5:00 AM 57.2 °F 42.8 °F 59% 29.95 in 6.2 mi NW 13.8 mph - N/A   Scattered Clouds
5:30 AM 55.4 °F 44.6 °F 67% 29.95 in 6.2 mi NW 15.0 mph - N/A   Scattered Clouds
6:00 AM 53.6 °F 44.6 °F 72% 29.95 in 6.2 mi NW 13.8 mph - N/A   Scattered Clouds
6:30 AM 53.6 °F 42.8 °F 67% 29.95 in 6.2 mi WNW 11.5 mph - N/A   Scattered Clouds
7:00 AM 55 °F 41 °F 49% 29.96 in 9 mi WNW 12.7 mph - -   Mostly Cloudy
7:00 AM 53.6 °F 41.0 °F 62% 29.95 in 6.2 mi WNW 12.7 mph 24.2 mph N/A   Scattered Clouds
7:30 AM 53.6 °F 39.2 °F 58% 29.95 in 6.2 mi WNW 17.3 mph 28.8 mph N/A   Scattered Clouds
8:00 AM 53.6 °F 39.2 °F 58% 29.95 in 6.2 mi WNW 20.7 mph 33.4 mph N/A   Scattered Clouds
8:30 AM 53.6 °F 35.6 °F 51% 29.95 in 6.2 mi WNW 18.4 mph 34.5 mph N/A   Scattered Clouds
9:00 AM 53.6 °F 33.8 °F 47% 29.95 in 6.2 mi WNW 18.4 mph 31.1 mph N/A   Scattered Clouds
9:30 AM 53.6 °F 33.8 °F 47% 29.98 in 6.2 mi WNW 23.0 mph 38.0 mph N/A   Scattered Clouds
10:00 AM 53.6 °F 35.6 °F 51% 29.98 in 6.2 mi WNW 17.3 mph 29.9 mph N/A   Scattered Clouds
10:30 AM 53.6 °F 35.6 °F 51% 29.98 in 6.2 mi WNW 16.1 mph 28.8 mph N/A   Scattered Clouds
11:00 AM 55.4 °F 33.8 °F 44% 30.01 in 6.2 mi WNW 18.4 mph 34.5 mph N/A   Scattered Clouds
11:30 AM 53.6 °F 33.8 °F 47% 30.01 in 6.2 mi WNW 15.0 mph 26.5 mph N/A   Scattered Clouds
12:00 PM 55.4 °F 33.8 °F 44% 30.01 in 6.2 mi WNW 9.2 mph - N/A   Scattered Clouds
1:00 PM 56 °F 38 °F 39% 30.03 in 19 mi WNW 16.1 mph - -   Partly Cloudy
1:00 PM 55.4 °F 33.8 °F 44% 30.01 in 6.2 mi WNW 16.1 mph 27.6 mph N/A   Scattered Clouds
1:30 PM 55.4 °F 33.8 °F 44% 30.01 in 6.2 mi WNW 12.7 mph 24.2 mph N/A   Scattered Clouds
2:00 PM 55.4 °F 32.0 °F 41% 30.01 in 6.2 mi WNW 13.8 mph 25.3 mph N/A   Scattered Clouds
2:30 PM 53.6 °F 37.4 °F 54% 30.01 in 6.2 mi NW 15.0 mph 27.6 mph N/A   Scattered Clouds
3:00 PM 55.4 °F 37.4 °F 51% 30.01 in 6.2 mi NW 15.0 mph 28.8 mph N/A   Scattered Clouds
3:30 PM 57.2 °F 35.6 °F 44% 29.98 in 6.2 mi NW 13.8 mph 25.3 mph N/A   Scattered Clouds
4:00 PM 55.4 °F 32.0 °F 41% 30.01 in 6.2 mi WNW 20.7 mph 33.4 mph N/A   Partly Cloudy
4:30 PM 57.2 °F 30.2 °F 36% 30.01 in 6.2 mi WNW 19.6 mph 34.5 mph N/A   Partly Cloudy
5:00 PM 55.4 °F 30.2 °F 38% 30.01 in 6.2 mi WNW 20.7 mph 33.4 mph N/A   Partly Cloudy
5:30 PM 55.4 °F 30.2 °F 38% 30.01 in 6.2 mi WNW 20.7 mph 32.2 mph N/A   Scattered Clouds
6:00 PM 55.4 °F 28.4 °F 36% 30.01 in 6.2 mi WNW 13.8 mph 27.6 mph N/A   Scattered Clouds
6:30 PM 55.4 °F 30.2 °F 38% 30.04 in 6.2 mi WNW 18.4 mph - N/A   Scattered Clouds
7:00 PM 55 °F 35 °F 36% 30.06 in 16 mi WNW 11.5 mph - -   Scattered Clouds
7:00 PM 53.6 °F 30.2 °F 41% 30.04 in 6.2 mi WNW 11.5 mph - N/A   Partly Cloudy
7:30 PM 51.8 °F 30.2 °F 44% 30.04 in 6.2 mi WNW 11.5 mph - N/A   Partly Cloudy
8:00 PM 51.8 °F 32.0 °F 47% 30.06 in 6.2 mi WNW 15.0 mph - N/A   Partly Cloudy
8:30 PM 51.8 °F 30.2 °F 44% 30.06 in 6.2 mi WNW 11.5 mph - N/A   Partly Cloudy
9:00 PM 51.8 °F 32.0 °F 47% 30.06 in 6.2 mi WNW 12.7 mph - N/A   Partly Cloudy
9:30 PM 51.8 °F 32.0 °F 47% 30.06 in 6.2 mi WNW 13.8 mph - N/A   Scattered Clouds
10:00 PM 51.8 °F 33.8 °F 50% 30.06 in 6.2 mi WNW 11.5 mph - N/A   Scattered Clouds
10:30 PM 51.8 °F 33.8 °F 50% 30.06 in 6.2 mi WNW 10.4 mph - N/A   Scattered Clouds